User: anonymous   Login
Location: Valley View Observatory
(41.0081°N, 76.5874°W)
Time: 14:44:45
(UTC-04:00)
Language:

Cosmos 2237 Rocket - Orbit

View from above orbital plane
View from above orbital plane
View from above satellite
View from above satellite

Ground track
Ground track

The orbit data is extracted from the following two-line orbital elements,

1 22566U 93016B   16127.49513646 -.00000216  00000-0 -86983-4 0  9994
2 22566  71.0084 200.5800 0009330  19.1073 341.0397 14.14928341193742
Epoch (UTC): 06 May 2016 11:52:59
Eccentricity: 0.0009330
inclination: 71.0084°
perigee height: 836 km
apogee height: 849 km
right ascension of ascending node: 200.5800°
argument of perigee: 19.1073°
revolutions per day: 14.14928341
mean anomaly at epoch: 341.0397°
orbit number at epoch: 19374

The dashed part of the orbit path shows where the satellite is in the earth's shadow,  

DLR